Weather History for KCNK - December, 2012

Change the Weather History Date:

Friday, December 14, 2012

  Actual Average Record
Temperature  
Mean Temperature 40 °F 30 °F  
Max Temperature 57 °F 39 °F 64 °F (2006)
Min Temperature 23 °F 20 °F -10 °F (1989)
Degree Days  
Heating Degree Days 25 35  
Month to date heating degree days 357 468  
Since 1 July heating degree days 1387 1560  
Cooling Degree Days 0 0  
Month to date cooling degree days 0 0  
Year to date cooling degree days 1643 1349  
Moisture  
Dew Point 35 °F    
Average Humidity 72    
Maximum Humidity 92    
Minimum Humidity 51    
Precipitation  
Precipitation 0.32 in 0.02 in 0.55 in (1891)
Month to date precipitation 0.32 0.45  
Year to date precipitation 23.40 27.49  
Snow  
Snow 0.00 in 0.10 in 3.60 in (1955)
Month to date snowfall 0.0 1.7  
Year to date snowfall 5.8 18.1  
Since 1 July snowfall 0.0 4.4  
Snow Depth 0.00 in    
Sea Level Pressure  
Sea Level Pressure 29.75 in    
Wind  
Wind Speed 12 mph (SE)    
Max Wind Speed 24 mph    
Max Gust Speed 30 mph    
Visibility 8 miles    
Events Rain , Thunderstorm    
T = Trace of Precipitation, MM = Missing Value Source: NWS Daily Summary

Daily Weather History Graph

Daily Weather History Graph

Search for Another Location

Airport or City:

Trip Planner

Search our weather history database for the weather conditions in past years. The results will help you decide how hot, cold, wet, or windy it might be!

Date:

Astronomy

Dec. 14, 2012 Rise Set
Actual Time 7:43 AM CST 5:07 PM CST
Civil Twilight 7:13 AM CST 5:37 PM CST
Nautical Twilight 6:39 AM CST 6:11 PM CST
Astronomical Twilight 6:06 AM CST 6:44 PM CST
Moon 8:49 AM CST (12/14) 7:01 PM CST (12/14)
Length of Visible Light 10h 24m
Length of Day
9h 23m
Waxing Crescent, 3% of the Moon is Illuminated
Dec 14
Waxing Crescent
Dec 19
First Quarter
Dec 28
Full
Jan 4
Last Quarter
Jan 11
New

Hourly Weather History & Observations

Time (CST) Temp. Windchill Dew Point Humidity Pressure Visibility Wind Dir Wind Speed Gust Speed Precip Events Conditions
12:55 AM 28.9 °F - 19.0 °F 67% 30.01 in 10.0 mi Calm Calm - N/A   Clear
1:55 AM 26.1 °F - 18.0 °F 71% 30.00 in 10.0 mi Calm Calm - N/A   Clear
2:55 AM 25.0 °F 19.3 °F 18.0 °F 75% 29.99 in 10.0 mi SE 4.6 mph - N/A   Clear
3:55 AM 25.0 °F 17.1 °F 19.0 °F 78% 29.99 in 10.0 mi SE 6.9 mph - N/A   Clear
4:55 AM 24.8 °F 16.9 °F 19.4 °F 80% 29.95 in 10.0 mi SE 6.9 mph - N/A   Clear
5:55 AM 25.0 °F 16.3 °F 19.9 °F 81% 29.97 in 10.0 mi SE 8.1 mph - N/A   Clear
6:55 AM 26.1 °F 19.4 °F 21.0 °F 81% 29.96 in 10.0 mi East 5.8 mph - N/A   Clear
7:55 AM 26.1 °F 21.9 °F 21.9 °F 84% 29.95 in 10.0 mi East 3.5 mph - N/A   Clear
8:55 AM 37.9 °F 32.7 °F 30.0 °F 73% 29.94 in 10.0 mi Variable 6.9 mph - N/A   Clear
9:55 AM 45.0 °F 39.3 °F 32.0 °F 60% 29.93 in 10.0 mi South 11.5 mph - N/A   Clear
10:55 AM 48.9 °F - 35.1 °F 59% 29.91 in 10.0 mi South 16.1 mph - N/A   Clear
11:55 AM 50.0 °F - 35.1 °F 57% 29.88 in 10.0 mi South 13.8 mph - N/A   Clear
12:55 PM 51.1 °F - 36.0 °F 56% 29.84 in 10.0 mi South 20.7 mph 25.3 mph N/A   Clear
1:55 PM 53.1 °F - 37.9 °F 57% 29.79 in 10.0 mi South 18.4 mph 24.2 mph N/A   Clear
2:55 PM 55.9 °F - 37.9 °F 51% 29.75 in 10.0 mi SSE 18.4 mph 25.3 mph N/A   Partly Cloudy
3:55 PM 55.4 °F - 37.4 °F 51% 29.73 in 10.0 mi SSE 18.4 mph - N/A   Mostly Cloudy
4:55 PM 54.0 °F - 39.0 °F 57% 29.74 in 10.0 mi South 11.5 mph 21.9 mph N/A   Partly Cloudy
5:50 PM 51.8 °F - 41.0 °F 67% 29.71 in 10.0 mi SSE 15.0 mph - 0.00 in Rain Light Rain
5:55 PM 52.0 °F - 41.0 °F 66% 29.73 in 10.0 mi SSE 13.8 mph - 0.00 in   Overcast
6:55 PM 46.9 °F - 43.0 °F 86% 29.72 in 10.0 mi SSE 11.5 mph - 0.02 in Rain Light Rain
7:42 PM 46.4 °F 40.7 °F 42.8 °F 87% 29.67 in 10.0 mi SE 12.7 mph - 0.05 in Rain Light Rain
7:55 PM 46.0 °F 41.0 °F 42.1 °F 86% 29.68 in 9.0 mi ESE 10.4 mph - 0.05 in Rain Light Rain
8:55 PM 46.9 °F - 43.0 °F 86% 29.62 in 10.0 mi SSE 17.3 mph 29.9 mph 0.04 in Rain Light Rain
9:04 PM 46.4 °F 38.5 °F 44.6 °F 93% 29.60 in 4.0 mi SSE 21.9 mph 28.8 mph 0.04 in Rain Heavy Rain
9:55 PM 45.0 °F 36.9 °F 43.0 °F 93% 29.56 in 3.0 mi SSE 20.7 mph 27.6 mph 0.13 in Rain Light Rain
10:01 PM 44.6 °F 37.2 °F 42.8 °F 93% 29.54 in 3.0 mi SE 17.3 mph 26.5 mph 0.01 in Rain Light Rain
10:15 PM 44.6 °F 37.2 °F 42.8 °F 93% 29.55 in 4.0 mi SE 17.3 mph - 0.02 in Rain , Thunderstorm Light Rain
10:19 PM 44.6 °F 37.4 °F 42.8 °F 93% 29.55 in 3.0 mi SE 16.1 mph 26.5 mph 0.02 in Rain , Thunderstorm Thunderstorms and Rain
10:27 PM 44.6 °F 36.9 °F 42.8 °F 93% 29.55 in 4.0 mi SSE 18.4 mph 24.2 mph 0.04 in Rain , Thunderstorm Light Thunderstorms and Rain
10:35 PM 44.6 °F 36.4 °F 42.8 °F 93% 29.54 in 4.0 mi SE 20.7 mph - 0.05 in Rain Light Rain
10:51 PM 44.6 °F 36.4 °F 42.8 °F 93% 29.52 in 4.0 mi SE 20.7 mph 28.8 mph 0.07 in Rain Light Rain
10:55 PM 45.0 °F 37.1 °F 42.1 °F 90% 29.51 in 4.0 mi SE 19.6 mph 28.8 mph 0.07 in Rain Light Rain
11:10 PM 44.6 °F 37.8 °F 42.8 °F 93% 29.48 in 9.0 mi ESE 15.0 mph 26.5 mph 0.01 in Rain Light Rain
11:55 PM 44.1 °F 38.1 °F 42.1 °F 93% 29.48 in 10.0 mi ESE 11.5 mph - 0.01 in   Overcast